Skip Page Navigation
NASA JPL Caltech
NASA Logo - Jet Propulsion Laboratory + View the NASA Portal
+ Near-Earth Object (NEO) Program
Search JPL
JPL Home Earth Solar System Stars & Galaxies Technology
JPL Solar System Dynamics
BODIES ORBITS EPHEMERIDES TOOLS PHYSICAL DATA DISCOVERY FAQ SITE MAP
JPL Small-Body Database Browser
Search: [ help ]  
206P/Barnard-Boattini
Classification: Jupiter-family Comet [NEO]          SPK-ID: 1000921
Ephemeris | Orbit Diagram | Orbital Elements | Physical Parameters | Close-Approach Data ]

[ hide orbit diagram ]
Orbit Diagram
Note: Make sure you have Java enabled on your browser to see the applet. This applet is provided as a 3D orbit visualization tool. The applet was implemented using 2-body methods, and hence should not be used for determining accurate long-term trajectories (over several years or decades) or planetary encounter circumstances. For accurate long-term ephemerides, please instead use our Horizons system.
Orbit Viewer

Additional Notes: the orbits shown in the applet are color coded. The planets are white lines, and the asteroid/comet is a blue line. The bright white line indicates the portion of the orbit that is above the ecliptic plane, and the darker portion is below the ecliptic plane. Likewise for the asteroid/comet orbit, the light blue indicates the portion above the ecliptic plane, and the dark blue the portion below the ecliptic plane.

Orbit Viewer applet originally written and kindly provided by Osamu Ajiki (AstroArts), and further modified by Ron Baalke (JPL).


Orbital Elements at Epoch 2453922.5 (2006-Jul-06.0) TDB
Reference: JPL 11 (heliocentric ecliptic J2000)
 Element Value Uncertainty (1-sigma)   Units 
e .6485340678918995 4.6561e-07  
a 3.233548800169957 3.8332e-06 AU
q 1.136482243068764 2.1904e-07 AU
i 33.20384381861419 2.8963e-05 deg
node 204.3764770225788 1.1569e-05 deg
peri 181.3610630187664 6.1924e-05 deg
M 217.4375905784314 0.00024276 deg
tp 2454763.546644058042
(2008-Oct-24.04664406)
6.4908e-05 JED
period 2123.819266869709
5.81
0.0037765
1.034e-05
d
yr
n .169505948842155 3.0141e-07 deg/d
Q 5.33061535727115 6.3191e-06 AU
  Orbit Determination Parameters
   # obs. used (total)      287  
   data-arc span      42448 days (116.22 yr)  
   first obs. used      1892-10-16  
   last obs. used      2009-01-04  
   planetary ephem.      DE405  
   SB-pert. ephem.      SB405-CPV-2  
   condition code      2  
   fit RMS      .82781  
   data source      ORB  
   producer      Otto Matic  
   solution date      2011-Sep-14 21:12:46  

Additional Information
 Earth MOID = .140964 AU 
 T_jup = 2.613 
[ show covariance matrix ]

Ephemeris | Orbit Diagram | Orbital Elements | Physical Parameters | Close-Approach Data ]

Physical Parameter Table
Parameter Symbol Value Units Sigma Reference Notes
comet total magnitude M1 20.3 mag 0.5 11 from 88 observations, assumed slope, autocmod 2.5a
comet total magnitude slope K1 10.   n/a 11 autocmod 2.5a

[ show close-approach data ]
Alternate Designations
 Perihelion 
Year
(est.)
 New-Style 
Desig
Roman
 Numeral 
Year/
 Letter 
 2008.8   206P/2008 T3       
 1892.5   206P/1892 T1       
Ephemeris | Orbit Diagram | Orbital Elements | Physical Parameters | Close-Approach Data ]
ABOUT SSD CREDITS/AWARDS PRIVACY/COPYRIGHT GLOSSARY LINKS
FirstGov 2013-Jun-20 00:52 UT
(server date/time)  
NASA Home Page
Site Manager:   Donald K. Yeomans
Webmaster  Alan B. Chamberlin